Year,Month,Day,Hour,Minute,Value (Times are PST for temperature in C)
2012,06,24,00,00,8.30
2012,06,24,00,01,8.30
2012,06,24,00,02,8.30
2012,06,24,00,03,8.30
2012,06,24,00,04,8.30
2012,06,24,00,05,8.30
2012,06,24,00,06,8.30
2012,06,24,00,07,8.30
2012,06,24,00,08,8.30
2012,06,24,00,09,8.30
2012,06,24,00,10,8.30
2012,06,24,00,11,8.30
2012,06,24,00,12,8.30
2012,06,24,00,17,8.20
2012,06,24,00,18,8.20
2012,06,24,00,19,8.20
2012,06,24,00,20,8.20
2012,06,24,00,21,8.20
2012,06,24,00,22,8.20
2012,06,24,00,23,8.20
2012,06,24,00,24,8.20
2012,06,24,00,25,8.20
2012,06,24,00,26,8.20
2012,06,24,00,27,8.10
2012,06,24,00,28,8.10
2012,06,24,00,29,8.10
2012,06,24,00,30,8.10
2012,06,24,00,31,8.10
2012,06,24,00,32,8.10
2012,06,24,00,33,8.00
2012,06,24,00,34,8.00
2012,06,24,00,35,8.00
2012,06,24,00,36,8.00
2012,06,24,00,37,7.90
2012,06,24,00,38,7.90
2012,06,24,00,39,7.90
2012,06,24,00,40,7.90
2012,06,24,00,41,7.90
2012,06,24,00,42,7.90
2012,06,24,00,43,7.90
2012,06,24,00,44,7.80
2012,06,24,00,45,7.80
2012,06,24,00,46,7.80
2012,06,24,00,47,7.80
2012,06,24,00,48,7.80
2012,06,24,00,49,7.80
2012,06,24,00,50,7.80
2012,06,24,00,51,7.80
2012,06,24,00,52,7.80
2012,06,24,00,53,7.80
2012,06,24,00,54,7.80
2012,06,24,00,55,7.80
2012,06,24,00,56,7.80
2012,06,24,00,57,7.80
2012,06,24,00,58,7.80
2012,06,24,00,59,7.80
2012,06,24,01,00,7.80
2012,06,24,01,01,7.80
2012,06,24,01,02,7.80
2012,06,24,01,03,7.80
2012,06,24,01,04,7.80
2012,06,24,01,05,7.80
2012,06,24,01,06,7.80
2012,06,24,01,07,7.80
2012,06,24,01,08,7.80
2012,06,24,01,09,7.80
2012,06,24,01,10,7.70
2012,06,24,01,11,7.70
2012,06,24,01,12,7.70
2012,06,24,01,13,7.70
2012,06,24,01,14,7.70
2012,06,24,01,15,7.70
2012,06,24,01,16,7.70
2012,06,24,01,17,7.70
2012,06,24,01,18,7.60
2012,06,24,01,19,7.60
2012,06,24,01,20,7.60
2012,06,24,01,21,7.60
2012,06,24,01,22,7.60
2012,06,24,01,23,7.60
2012,06,24,01,24,7.60
2012,06,24,01,25,7.60
2012,06,24,01,26,7.60
2012,06,24,01,27,7.60
2012,06,24,01,28,7.60
2012,06,24,01,29,7.60
2012,06,24,01,30,7.60
2012,06,24,01,31,7.50
2012,06,24,01,32,7.50
2012,06,24,01,33,7.50
2012,06,24,01,34,7.50
2012,06,24,01,35,7.50
2012,06,24,01,36,7.50
2012,06,24,01,37,7.50
2012,06,24,01,38,7.50
2012,06,24,01,39,7.50
2012,06,24,01,40,7.50
2012,06,24,01,41,7.50
2012,06,24,01,42,7.40
2012,06,24,01,43,7.50
2012,06,24,01,44,7.40
2012,06,24,01,45,7.40
2012,06,24,01,46,7.40
2012,06,24,01,47,7.40
2012,06,24,01,48,7.40
2012,06,24,01,49,7.40
2012,06,24,01,50,7.40
2012,06,24,01,51,7.40
2012,06,24,01,52,7.30
2012,06,24,01,53,7.30
2012,06,24,01,54,7.30
2012,06,24,01,55,7.30
2012,06,24,01,56,7.30
2012,06,24,01,57,7.30
2012,06,24,01,58,7.30
2012,06,24,01,59,7.30
2012,06,24,02,00,7.30
2012,06,24,02,01,7.30
2012,06,24,02,02,7.30
2012,06,24,02,03,7.30
2012,06,24,02,04,7.30
2012,06,24,02,05,7.30
2012,06,24,02,06,7.30
2012,06,24,02,07,7.30
2012,06,24,02,08,7.30
2012,06,24,02,09,7.30
2012,06,24,02,10,7.30
2012,06,24,02,11,7.30
2012,06,24,02,12,7.30
2012,06,24,02,13,7.30
2012,06,24,02,14,7.30
2012,06,24,02,15,7.30
2012,06,24,02,16,7.30
2012,06,24,02,17,7.30
2012,06,24,02,18,7.30
2012,06,24,02,19,7.30
2012,06,24,02,20,7.30
2012,06,24,02,21,7.30
2012,06,24,02,22,7.30
2012,06,24,02,23,7.30
2012,06,24,02,24,7.30
2012,06,24,02,25,7.30
2012,06,24,02,26,7.30
2012,06,24,02,27,7.30
2012,06,24,02,28,7.30
2012,06,24,02,29,7.30
2012,06,24,02,30,7.30
2012,06,24,02,31,7.30
2012,06,24,02,32,7.30
2012,06,24,02,33,7.30
2012,06,24,02,34,7.30
2012,06,24,02,35,7.30
2012,06,24,02,36,7.30
2012,06,24,02,37,7.30
2012,06,24,02,38,7.30
2012,06,24,02,39,7.20
2012,06,24,02,40,7.20
2012,06,24,02,41,7.20
2012,06,24,02,42,7.20
2012,06,24,02,43,7.20
2012,06,24,02,44,7.20
2012,06,24,02,45,7.10
2012,06,24,02,46,7.10
2012,06,24,02,47,7.10
2012,06,24,02,48,7.00
2012,06,24,02,49,7.00
2012,06,24,02,50,7.00
2012,06,24,02,51,7.00
2012,06,24,02,52,7.00
2012,06,24,02,53,6.90
2012,06,24,02,54,6.90
2012,06,24,02,55,6.90
2012,06,24,02,56,6.90
2012,06,24,02,57,6.90
2012,06,24,02,58,6.80
2012,06,24,02,59,6.80
2012,06,24,03,00,6.80
2012,06,24,03,01,6.80
2012,06,24,03,02,6.80
2012,06,24,03,03,6.80
2012,06,24,03,04,6.80
2012,06,24,03,05,6.80
2012,06,24,03,06,6.80
2012,06,24,03,07,6.80
2012,06,24,03,08,6.70
2012,06,24,03,09,6.70
2012,06,24,03,10,6.70
2012,06,24,03,11,6.70
2012,06,24,03,12,6.70
2012,06,24,03,13,6.70
2012,06,24,03,14,6.70
2012,06,24,03,15,6.70
2012,06,24,03,16,6.70
2012,06,24,03,17,6.70
2012,06,24,03,18,6.70
2012,06,24,03,19,6.70
2012,06,24,03,20,6.70
2012,06,24,03,21,6.70
2012,06,24,03,22,6.70
2012,06,24,03,23,6.70
2012,06,24,03,24,6.70
2012,06,24,03,25,6.70
2012,06,24,03,26,6.60
2012,06,24,03,27,6.60
2012,06,24,03,28,6.60
2012,06,24,03,29,6.60
2012,06,24,03,30,6.60
2012,06,24,03,31,6.60
2012,06,24,03,32,6.60
2012,06,24,03,33,6.50
2012,06,24,03,34,6.50
2012,06,24,03,35,6.50
2012,06,24,03,36,6.50
2012,06,24,03,37,6.50
2012,06,24,03,38,6.40
2012,06,24,03,39,6.40
2012,06,24,03,40,6.40
2012,06,24,03,41,6.40
2012,06,24,03,42,6.40
2012,06,24,03,43,6.40
2012,06,24,03,44,6.40
2012,06,24,03,45,6.40
2012,06,24,03,46,6.30
2012,06,24,03,47,6.30
2012,06,24,03,48,6.30
2012,06,24,03,49,6.30
2012,06,24,03,50,6.30
2012,06,24,03,51,6.30
2012,06,24,03,52,6.30
2012,06,24,03,53,6.30
2012,06,24,03,54,6.30
2012,06,24,03,55,6.30
2012,06,24,03,56,6.30
2012,06,24,03,57,6.20
2012,06,24,03,58,6.20
2012,06,24,03,59,6.20
2012,06,24,04,00,6.20
2012,06,24,04,01,6.20
2012,06,24,04,02,6.20
2012,06,24,04,03,6.20
2012,06,24,04,04,6.20
2012,06,24,04,05,6.20
2012,06,24,04,06,6.10
2012,06,24,04,07,6.10
2012,06,24,04,08,6.10
2012,06,24,04,09,6.10
2012,06,24,04,10,6.10
2012,06,24,04,11,6.10
2012,06,24,04,12,6.10
2012,06,24,04,13,6.10
2012,06,24,04,14,6.10
2012,06,24,04,15,6.10
2012,06,24,04,16,6.10
2012,06,24,04,17,6.10
2012,06,24,04,18,6.10
2012,06,24,04,19,6.10
2012,06,24,04,20,6.10
2012,06,24,04,21,6.10
2012,06,24,04,22,6.10
2012,06,24,04,23,6.10
2012,06,24,04,24,6.10
2012,06,24,04,25,6.00
2012,06,24,04,26,6.10
2012,06,24,04,27,6.00
2012,06,24,04,28,6.00
2012,06,24,04,29,6.00
2012,06,24,04,30,6.00
2012,06,24,04,31,6.00
2012,06,24,04,32,6.00
2012,06,24,04,33,6.00
2012,06,24,04,34,6.00
2012,06,24,04,35,6.00
2012,06,24,04,36,6.00
2012,06,24,04,37,6.00
2012,06,24,04,38,6.00
2012,06,24,04,39,6.00
2012,06,24,04,40,5.90
2012,06,24,04,41,5.90
2012,06,24,04,42,5.90
2012,06,24,04,43,5.90
2012,06,24,04,44,5.90
2012,06,24,04,45,5.90
2012,06,24,04,46,5.90
2012,06,24,04,47,5.90
2012,06,24,04,48,5.90
2012,06,24,04,49,5.90
2012,06,24,04,50,5.90
2012,06,24,04,51,5.90
2012,06,24,04,52,5.80
2012,06,24,04,53,5.80
2012,06,24,04,54,5.80
2012,06,24,04,55,5.80
2012,06,24,04,56,5.80
2012,06,24,04,57,5.80
2012,06,24,04,58,5.80
2012,06,24,04,59,5.80
2012,06,24,05,00,5.80
2012,06,24,05,01,5.80
2012,06,24,05,02,5.80
2012,06,24,05,03,5.80
2012,06,24,05,04,5.80
2012,06,24,05,05,5.80
2012,06,24,05,06,5.80
2012,06,24,05,07,5.80
2012,06,24,05,08,5.80
2012,06,24,05,09,5.80
2012,06,24,05,10,5.80
2012,06,24,05,11,5.80
2012,06,24,05,12,5.80
2012,06,24,05,13,5.80
2012,06,24,05,14,5.80
2012,06,24,05,15,5.70
2012,06,24,05,16,5.70
2012,06,24,05,17,5.70
2012,06,24,05,18,5.70
2012,06,24,05,19,5.70
2012,06,24,05,20,5.70
2012,06,24,05,21,5.70
2012,06,24,05,22,5.70
2012,06,24,05,23,5.70
2012,06,24,05,24,5.70
2012,06,24,05,25,5.70
2012,06,24,05,26,5.70
2012,06,24,05,27,5.70
2012,06,24,05,28,5.70
2012,06,24,05,29,5.70
2012,06,24,05,30,5.70
2012,06,24,05,31,5.70
2012,06,24,05,32,5.60
2012,06,24,05,33,5.70
2012,06,24,05,34,5.60
2012,06,24,05,35,5.60
2012,06,24,05,36,5.60
2012,06,24,05,37,5.60
2012,06,24,05,38,5.60
2012,06,24,05,39,5.60
2012,06,24,05,40,5.60
2012,06,24,05,41,5.60
2012,06,24,05,42,5.60
2012,06,24,05,43,5.60
2012,06,24,05,44,5.50
2012,06,24,05,45,5.50
2012,06,24,05,46,5.50
2012,06,24,05,47,5.50
2012,06,24,05,48,5.50
2012,06,24,05,49,5.50
2012,06,24,05,50,5.50
2012,06,24,05,51,5.50
2012,06,24,05,52,5.50
2012,06,24,05,53,5.50
2012,06,24,05,54,5.50
2012,06,24,05,55,5.50
2012,06,24,05,56,5.50
2012,06,24,05,57,5.40
2012,06,24,05,58,5.40
2012,06,24,05,59,5.40
2012,06,24,06,00,5.40
2012,06,24,06,01,5.40
2012,06,24,06,02,5.40
2012,06,24,06,03,5.40
2012,06,24,06,04,5.50
2012,06,24,06,05,5.40
2012,06,24,06,06,5.50
2012,06,24,06,07,5.50
2012,06,24,06,08,5.50
2012,06,24,06,09,5.50
2012,06,24,06,10,5.50
2012,06,24,06,11,5.50
2012,06,24,06,12,5.50
2012,06,24,06,13,5.50
2012,06,24,06,14,5.50
2012,06,24,06,15,5.60
2012,06,24,06,16,5.60
2012,06,24,06,17,5.60
2012,06,24,06,18,5.60
2012,06,24,06,19,5.60
2012,06,24,06,20,5.70
2012,06,24,06,21,5.70
2012,06,24,06,22,5.70
2012,06,24,06,23,5.70
2012,06,24,06,24,5.80
2012,06,24,06,25,5.80
2012,06,24,06,26,5.80
2012,06,24,06,27,5.80
2012,06,24,06,28,5.80
2012,06,24,06,29,5.80
2012,06,24,06,30,5.80
2012,06,24,06,31,5.80
2012,06,24,06,32,5.80
2012,06,24,06,33,5.90
2012,06,24,06,34,5.90
2012,06,24,06,35,5.90
2012,06,24,06,36,5.90
2012,06,24,06,37,6.00
2012,06,24,06,38,6.00
2012,06,24,06,39,6.10
2012,06,24,06,40,6.10
2012,06,24,06,41,6.10
2012,06,24,06,42,6.10
2012,06,24,06,43,6.20
2012,06,24,06,44,6.20
2012,06,24,06,45,6.20
2012,06,24,06,46,6.20
2012,06,24,06,47,6.20
2012,06,24,06,48,6.20
2012,06,24,06,49,6.30
2012,06,24,06,50,6.30
2012,06,24,06,51,6.30
2012,06,24,06,52,6.30
2012,06,24,06,53,6.30
2012,06,24,06,54,6.30
2012,06,24,06,55,6.30
2012,06,24,06,56,6.30
2012,06,24,06,57,6.40
2012,06,24,06,58,6.40
2012,06,24,06,59,6.40
2012,06,24,07,00,6.40
2012,06,24,07,01,6.50
2012,06,24,07,02,6.50
2012,06,24,07,03,6.60
2012,06,24,07,04,6.60
2012,06,24,07,05,6.60
2012,06,24,07,06,6.70
2012,06,24,07,07,6.70
2012,06,24,07,08,6.70
2012,06,24,07,09,6.70
2012,06,24,07,10,6.80
2012,06,24,07,11,6.80
2012,06,24,07,12,6.80
2012,06,24,07,13,6.90
2012,06,24,07,14,6.90
2012,06,24,07,15,6.90
2012,06,24,07,16,6.90
2012,06,24,07,17,6.90
2012,06,24,07,18,7.00
2012,06,24,07,19,7.00
2012,06,24,07,20,7.10
2012,06,24,07,21,7.00
2012,06,24,07,22,7.10
2012,06,24,07,23,7.10
2012,06,24,07,24,7.20
2012,06,24,07,25,7.20
2012,06,24,07,26,7.20
2012,06,24,07,27,7.20
2012,06,24,07,28,7.20
2012,06,24,07,29,7.20
2012,06,24,07,30,7.20
2012,06,24,07,31,7.20
2012,06,24,07,32,7.30
2012,06,24,07,33,7.30
2012,06,24,07,34,7.30
2012,06,24,07,35,7.30
2012,06,24,07,36,7.30
2012,06,24,07,37,7.30
2012,06,24,07,38,7.40
2012,06,24,07,39,7.40
2012,06,24,07,40,7.40
2012,06,24,07,41,7.40
2012,06,24,07,42,7.40
2012,06,24,07,43,7.40
2012,06,24,07,44,7.40
2012,06,24,07,45,7.50
2012,06,24,07,46,7.50
2012,06,24,07,47,7.60
2012,06,24,07,48,7.60
2012,06,24,07,49,7.60
2012,06,24,07,50,7.70
2012,06,24,07,51,7.70
2012,06,24,07,52,7.80
2012,06,24,07,53,7.80
2012,06,24,07,54,7.90
2012,06,24,07,55,7.90
2012,06,24,07,56,8.00
2012,06,24,07,57,8.00
2012,06,24,07,58,8.10
2012,06,24,07,59,8.20
2012,06,24,08,00,8.20
2012,06,24,08,01,8.20
2012,06,24,08,02,8.30
2012,06,24,08,03,8.30
2012,06,24,08,04,8.30
2012,06,24,08,05,8.40
2012,06,24,08,06,8.40
2012,06,24,08,07,8.40
2012,06,24,08,08,8.40
2012,06,24,08,09,8.40
2012,06,24,08,10,8.50
2012,06,24,08,11,8.50
2012,06,24,08,12,8.60
2012,06,24,08,13,8.60
2012,06,24,08,14,8.60
2012,06,24,08,15,8.60
2012,06,24,08,16,8.70
2012,06,24,08,17,8.70
2012,06,24,08,18,8.70
2012,06,24,08,19,8.70
2012,06,24,08,20,8.70
2012,06,24,08,21,8.80
2012,06,24,08,22,8.80
2012,06,24,08,23,8.90
2012,06,24,08,24,8.90
2012,06,24,08,25,8.90
2012,06,24,08,26,8.90
2012,06,24,08,27,9.00
2012,06,24,08,28,9.00
2012,06,24,08,29,9.10
2012,06,24,08,30,9.20
2012,06,24,08,31,9.20
2012,06,24,08,32,9.30
2012,06,24,08,33,9.40
2012,06,24,08,34,9.40
2012,06,24,08,35,9.50
2012,06,24,08,36,9.60
2012,06,24,08,37,9.60
2012,06,24,08,38,9.70
2012,06,24,08,39,9.70
2012,06,24,08,40,9.80
2012,06,24,08,41,9.90
2012,06,24,08,42,9.90
2012,06,24,08,43,9.90
2012,06,24,08,44,10.00
2012,06,24,08,45,10.00
2012,06,24,08,46,10.10
2012,06,24,08,47,10.10
2012,06,24,08,48,10.10
2012,06,24,08,49,10.10
2012,06,24,08,50,10.10
2012,06,24,08,51,10.10
2012,06,24,08,52,10.20
2012,06,24,08,53,10.20
2012,06,24,08,54,10.20
2012,06,24,08,55,10.20
2012,06,24,08,56,10.30
2012,06,24,08,57,10.30
2012,06,24,08,58,10.40
2012,06,24,08,59,10.40
2012,06,24,09,00,10.50
2012,06,24,09,01,10.50
2012,06,24,09,02,10.60
2012,06,24,09,03,10.60
2012,06,24,09,04,10.60
2012,06,24,09,05,10.70
2012,06,24,09,06,10.70
2012,06,24,09,07,10.80
2012,06,24,09,08,10.90
2012,06,24,09,09,10.90
2012,06,24,09,10,11.00
2012,06,24,09,11,11.10
2012,06,24,09,12,11.20
2012,06,24,09,13,11.30
2012,06,24,09,14,11.40
2012,06,24,09,15,11.50
2012,06,24,09,16,11.60
2012,06,24,09,17,11.70
2012,06,24,09,18,11.80
2012,06,24,09,19,11.80
2012,06,24,09,20,11.90
2012,06,24,09,21,11.90
2012,06,24,09,22,12.00
2012,06,24,09,23,12.00
2012,06,24,09,24,12.00
2012,06,24,09,25,12.00
2012,06,24,09,26,12.00
2012,06,24,09,27,12.10
2012,06,24,09,28,12.20
2012,06,24,09,29,12.20
2012,06,24,09,30,12.20
2012,06,24,09,31,12.20
2012,06,24,09,32,12.30
2012,06,24,09,33,12.30
2012,06,24,09,34,12.30
2012,06,24,09,35,12.30
2012,06,24,09,36,12.40
2012,06,24,09,37,12.40
2012,06,24,09,38,12.50
2012,06,24,09,39,12.50
2012,06,24,09,40,12.40
2012,06,24,09,41,12.40
2012,06,24,09,42,12.40
2012,06,24,09,43,12.40
2012,06,24,09,44,12.40
2012,06,24,09,45,12.40
2012,06,24,09,46,12.30
2012,06,24,09,47,12.30
2012,06,24,09,48,12.20
2012,06,24,09,49,12.10
2012,06,24,09,50,12.10
2012,06,24,09,51,12.10
2012,06,24,09,52,12.10
2012,06,24,09,53,12.10
2012,06,24,09,54,12.20
2012,06,24,09,55,12.20
2012,06,24,09,56,12.20
2012,06,24,09,57,12.30
2012,06,24,09,58,12.30
2012,06,24,09,59,12.40
2012,06,24,10,00,12.40
2012,06,24,10,01,12.50
2012,06,24,10,02,12.50
2012,06,24,10,03,12.60
2012,06,24,10,04,12.60
2012,06,24,10,05,12.70
2012,06,24,10,06,12.70
2012,06,24,10,07,12.80
2012,06,24,10,08,12.80
2012,06,24,10,09,12.90
2012,06,24,10,10,12.90
2012,06,24,10,11,12.80
2012,06,24,10,12,12.80
2012,06,24,10,13,12.70
2012,06,24,10,14,12.70
2012,06,24,10,15,12.60
2012,06,24,10,16,12.60
2012,06,24,10,17,12.60
2012,06,24,10,18,12.60
2012,06,24,10,19,12.50
2012,06,24,10,20,12.50
2012,06,24,10,21,12.50
2012,06,24,10,22,12.50
2012,06,24,10,23,12.50
2012,06,24,10,24,12.60
2012,06,24,10,25,12.60
2012,06,24,10,26,12.70
2012,06,24,10,27,12.80
2012,06,24,10,28,12.80
2012,06,24,10,29,12.90
2012,06,24,10,30,13.00
2012,06,24,10,31,13.00
2012,06,24,10,32,13.00
2012,06,24,10,33,13.00
2012,06,24,10,34,13.00
2012,06,24,10,35,13.00
2012,06,24,10,36,13.10
2012,06,24,10,37,13.10
2012,06,24,10,38,13.10
2012,06,24,10,39,13.10
2012,06,24,10,40,13.10
2012,06,24,10,41,13.10
2012,06,24,10,42,13.10
2012,06,24,10,43,13.10
2012,06,24,10,44,13.10
2012,06,24,10,45,13.10
2012,06,24,10,46,13.00
2012,06,24,10,47,13.00
2012,06,24,10,48,12.90
2012,06,24,10,49,13.00
2012,06,24,10,50,13.00
2012,06,24,10,51,13.10
2012,06,24,10,52,13.10
2012,06,24,10,53,13.20
2012,06,24,10,54,13.20
2012,06,24,10,55,13.30
2012,06,24,10,56,13.30
2012,06,24,10,57,13.30
2012,06,24,10,58,13.40
2012,06,24,10,59,13.40
2012,06,24,11,00,13.50
2012,06,24,11,01,13.50
2012,06,24,11,02,13.60
2012,06,24,11,03,13.60
2012,06,24,11,04,13.60
2012,06,24,11,05,13.70
2012,06,24,11,06,13.80
2012,06,24,11,07,13.80
2012,06,24,11,08,13.90
2012,06,24,11,09,13.90
2012,06,24,11,10,14.00
2012,06,24,11,11,14.00
2012,06,24,11,12,13.90
2012,06,24,11,13,13.90
2012,06,24,11,14,14.00
2012,06,24,11,15,14.00
2012,06,24,11,16,14.00
2012,06,24,11,17,14.10
2012,06,24,11,18,14.10
2012,06,24,11,19,14.10
2012,06,24,11,20,14.10
2012,06,24,11,21,14.10
2012,06,24,11,22,14.10
2012,06,24,11,23,14.10
2012,06,24,11,24,14.10
2012,06,24,11,25,14.10
2012,06,24,11,26,14.00
2012,06,24,11,27,14.00
2012,06,24,11,28,13.90
2012,06,24,11,29,13.90
2012,06,24,11,30,13.90
2012,06,24,11,31,14.00
2012,06,24,11,32,14.00
2012,06,24,11,33,14.10
2012,06,24,11,34,14.20
2012,06,24,11,35,14.20
2012,06,24,11,36,14.20
2012,06,24,11,37,14.30
2012,06,24,11,38,14.30
2012,06,24,11,39,14.40
2012,06,24,11,40,14.40
2012,06,24,11,41,14.40
2012,06,24,11,42,14.50
2012,06,24,11,43,14.50
2012,06,24,11,44,14.50
2012,06,24,11,45,14.60
2012,06,24,11,46,14.60
2012,06,24,11,47,14.60
2012,06,24,11,48,14.40
2012,06,24,11,49,14.30
2012,06,24,11,50,14.20
2012,06,24,11,51,14.00
2012,06,24,11,52,13.90
2012,06,24,11,53,13.80
2012,06,24,11,54,13.70
2012,06,24,11,55,13.60
2012,06,24,11,56,13.50
2012,06,24,11,57,13.50
2012,06,24,11,58,13.40
2012,06,24,11,59,13.30
2012,06,24,12,00,13.30
2012,06,24,12,01,13.20
2012,06,24,12,02,13.20
2012,06,24,12,03,13.30
2012,06,24,12,04,13.30
2012,06,24,12,05,13.30
2012,06,24,12,06,13.30
2012,06,24,12,07,13.30
2012,06,24,12,08,13.40
2012,06,24,12,09,13.40
2012,06,24,12,10,13.40
2012,06,24,12,11,13.40
2012,06,24,12,12,13.40
2012,06,24,12,13,13.40
2012,06,24,12,14,13.50
2012,06,24,12,15,13.50
2012,06,24,12,16,13.50
2012,06,24,12,17,13.60
2012,06,24,12,18,13.60
2012,06,24,12,19,13.60
2012,06,24,12,20,13.70
2012,06,24,12,21,13.70
2012,06,24,12,22,13.80
2012,06,24,12,23,13.80
2012,06,24,12,24,13.80
2012,06,24,12,25,13.90
2012,06,24,12,26,13.90
2012,06,24,12,27,13.90
2012,06,24,12,28,14.00
2012,06,24,12,29,14.00
2012,06,24,12,30,14.00
2012,06,24,12,31,14.00
2012,06,24,12,32,14.10
2012,06,24,12,33,14.10
2012,06,24,12,34,14.10
2012,06,24,12,35,14.20
2012,06,24,12,36,14.30
2012,06,24,12,37,14.40
2012,06,24,12,38,14.40
2012,06,24,12,39,14.60
2012,06,24,12,40,14.70
2012,06,24,12,41,14.70
2012,06,24,12,42,14.80
2012,06,24,12,43,14.80
2012,06,24,12,44,14.80
2012,06,24,12,45,14.90
2012,06,24,12,46,14.90
2012,06,24,12,47,15.00
2012,06,24,12,48,15.00
2012,06,24,12,49,15.10
2012,06,24,12,50,15.10
2012,06,24,12,51,15.10
2012,06,24,12,52,15.10
2012,06,24,12,53,15.10
2012,06,24,12,54,15.20
2012,06,24,12,55,15.30
2012,06,24,12,56,15.30
2012,06,24,12,57,15.30
2012,06,24,12,58,15.30
2012,06,24,12,59,15.30
2012,06,24,13,00,15.20
2012,06,24,13,01,15.20
2012,06,24,13,02,15.20
2012,06,24,13,03,15.20
2012,06,24,13,04,15.20
2012,06,24,13,05,15.20
2012,06,24,13,06,15.20
2012,06,24,13,07,15.30
2012,06,24,13,08,15.30
2012,06,24,13,09,15.30
2012,06,24,13,10,15.30
2012,06,24,13,11,15.40
2012,06,24,13,12,15.40
2012,06,24,13,13,15.40
2012,06,24,13,14,15.50
2012,06,24,13,15,15.60
2012,06,24,13,16,15.60
2012,06,24,13,17,15.70
2012,06,24,13,18,15.80
2012,06,24,13,19,15.90
2012,06,24,13,20,15.90
2012,06,24,13,21,16.00
2012,06,24,13,22,16.00
2012,06,24,13,23,16.00
2012,06,24,13,24,16.00
2012,06,24,13,25,16.00
2012,06,24,13,26,16.00
2012,06,24,13,27,16.00
2012,06,24,13,28,16.10
2012,06,24,13,29,16.10
2012,06,24,13,30,16.00
2012,06,24,13,31,16.00
2012,06,24,13,32,16.00
2012,06,24,13,33,16.10
2012,06,24,13,34,16.20
2012,06,24,13,35,16.20
2012,06,24,13,36,16.30
2012,06,24,13,37,16.30
2012,06,24,13,38,16.40
2012,06,24,13,39,16.40
2012,06,24,13,40,16.50
2012,06,24,13,41,16.60
2012,06,24,13,42,16.80
2012,06,24,13,43,16.90
2012,06,24,13,44,17.00
2012,06,24,13,45,17.10
2012,06,24,13,46,17.10
2012,06,24,13,47,17.10
2012,06,24,13,48,17.20
2012,06,24,13,49,17.20
2012,06,24,13,50,17.30
2012,06,24,13,51,17.30
2012,06,24,13,52,17.40
2012,06,24,13,53,17.50
2012,06,24,13,54,17.50
2012,06,24,13,55,17.50
2012,06,24,13,56,17.60
2012,06,24,13,57,17.70
2012,06,24,13,58,17.80
2012,06,24,13,59,17.80
2012,06,24,14,00,17.90
2012,06,24,14,01,18.00
2012,06,24,14,02,18.10
2012,06,24,14,03,18.10
2012,06,24,14,04,18.10
2012,06,24,14,05,18.10
2012,06,24,14,06,18.10
2012,06,24,14,07,18.10
2012,06,24,14,08,18.10
2012,06,24,14,09,18.10
2012,06,24,14,10,18.10
2012,06,24,14,11,18.20
2012,06,24,14,12,18.20
2012,06,24,14,13,18.20
2012,06,24,14,14,18.20
2012,06,24,14,15,18.10
2012,06,24,14,16,18.10
2012,06,24,14,17,18.10
2012,06,24,14,18,18.10
2012,06,24,14,19,18.10
2012,06,24,14,20,18.10
2012,06,24,14,21,18.10
2012,06,24,14,22,18.00
2012,06,24,14,23,17.90
2012,06,24,14,24,17.80
2012,06,24,14,25,17.80
2012,06,24,14,26,17.80
2012,06,24,14,27,17.80
2012,06,24,14,28,17.90
2012,06,24,14,29,18.00
2012,06,24,14,30,18.00
2012,06,24,14,31,18.00
2012,06,24,14,32,17.90
2012,06,24,14,33,17.90
2012,06,24,14,34,17.90
2012,06,24,14,35,17.80
2012,06,24,14,36,17.70
2012,06,24,14,37,17.70
2012,06,24,14,38,17.70
2012,06,24,14,39,17.70
2012,06,24,14,40,17.70
2012,06,24,14,41,17.80
2012,06,24,14,42,17.90
2012,06,24,14,43,17.90
2012,06,24,14,44,17.90
2012,06,24,14,45,17.90
2012,06,24,14,46,17.90
2012,06,24,14,47,18.00
2012,06,24,14,48,18.00
2012,06,24,14,49,17.90
2012,06,24,14,50,17.70
2012,06,24,14,51,17.60
2012,06,24,14,52,17.50
2012,06,24,14,53,17.40
2012,06,24,14,54,17.30
2012,06,24,14,55,17.30
2012,06,24,14,56,17.20
2012,06,24,14,57,17.20
2012,06,24,14,58,17.10
2012,06,24,14,59,17.10
2012,06,24,15,00,17.10
2012,06,24,15,01,17.00
2012,06,24,15,02,17.00
2012,06,24,15,03,17.00
2012,06,24,15,04,17.00
2012,06,24,15,05,17.10
2012,06,24,15,06,17.10
2012,06,24,15,07,17.20
2012,06,24,15,08,17.30
2012,06,24,15,09,17.30
2012,06,24,15,10,17.30
2012,06,24,15,11,17.40
2012,06,24,15,12,17.30
2012,06,24,15,13,17.30
2012,06,24,15,14,17.10
2012,06,24,15,15,17.00
2012,06,24,15,16,17.00
2012,06,24,15,17,17.00
2012,06,24,15,18,17.00
2012,06,24,15,19,17.00
2012,06,24,15,20,17.00
2012,06,24,15,21,17.10
2012,06,24,15,22,17.10
2012,06,24,15,23,17.10
2012,06,24,15,24,17.20
2012,06,24,15,25,17.30
2012,06,24,15,26,17.30
2012,06,24,15,27,17.40
2012,06,24,15,28,17.40
2012,06,24,15,29,17.30
2012,06,24,15,30,17.20
2012,06,24,15,31,17.10
2012,06,24,15,32,17.00
2012,06,24,15,33,17.00
2012,06,24,15,34,17.00
2012,06,24,15,35,17.10
2012,06,24,15,36,17.20
2012,06,24,15,37,17.30
2012,06,24,15,38,17.30
2012,06,24,15,39,17.40
2012,06,24,15,40,17.40
2012,06,24,15,41,17.40
2012,06,24,15,42,17.50
2012,06,24,15,43,17.70
2012,06,24,15,44,17.80
2012,06,24,15,45,17.80
2012,06,24,15,46,17.90
2012,06,24,15,47,17.80
2012,06,24,15,48,17.80
2012,06,24,15,49,17.90
2012,06,24,15,50,17.90
2012,06,24,15,51,17.80
2012,06,24,15,52,17.70
2012,06,24,15,53,17.70
2012,06,24,15,54,17.70
2012,06,24,15,55,17.70
2012,06,24,15,56,17.70
2012,06,24,15,57,17.70
2012,06,24,15,58,17.70
2012,06,24,15,59,17.70
2012,06,24,16,00,17.60
2012,06,24,16,01,17.50
2012,06,24,16,02,17.40
2012,06,24,16,03,17.40
2012,06,24,16,04,17.40
2012,06,24,16,05,17.30
2012,06,24,16,06,17.30
2012,06,24,16,07,17.20
2012,06,24,16,08,17.20
2012,06,24,16,09,17.10
2012,06,24,16,10,17.10
2012,06,24,16,11,17.00
2012,06,24,16,12,17.00
2012,06,24,16,13,17.00
2012,06,24,16,14,16.90
2012,06,24,16,15,16.90
2012,06,24,16,16,16.90
2012,06,24,16,17,16.80
2012,06,24,16,18,16.80
2012,06,24,16,19,16.80
2012,06,24,16,20,16.70
2012,06,24,16,21,16.70
2012,06,24,16,22,16.70
2012,06,24,16,23,16.70
2012,06,24,16,24,16.80
2012,06,24,16,25,16.90
2012,06,24,16,26,17.00
2012,06,24,16,27,17.10
2012,06,24,16,28,17.00
2012,06,24,16,29,17.00
2012,06,24,16,30,17.00
2012,06,24,16,31,17.00
2012,06,24,16,32,17.10
2012,06,24,16,33,17.10
2012,06,24,16,34,17.10
2012,06,24,16,35,17.00
2012,06,24,16,36,16.90
2012,06,24,16,37,16.90
2012,06,24,16,38,16.90
2012,06,24,16,39,16.90
2012,06,24,16,40,16.90
2012,06,24,16,41,17.00
2012,06,24,16,42,17.10
2012,06,24,16,43,17.10
2012,06,24,16,44,17.10
2012,06,24,16,45,17.00
2012,06,24,16,46,16.90
2012,06,24,16,47,17.00
2012,06,24,16,48,17.00
2012,06,24,16,49,17.10
2012,06,24,16,50,17.10
2012,06,24,16,51,17.00
2012,06,24,16,52,17.00
2012,06,24,16,53,17.00
2012,06,24,16,54,17.00
2012,06,24,16,55,17.10
2012,06,24,16,56,17.10
2012,06,24,16,57,17.10
2012,06,24,16,58,17.20
2012,06,24,16,59,17.30
2012,06,24,17,00,17.40
2012,06,24,17,01,17.30
2012,06,24,17,02,17.30
2012,06,24,17,03,17.30
2012,06,24,17,04,17.20
2012,06,24,17,05,17.10
2012,06,24,17,06,17.10
2012,06,24,17,07,17.10
2012,06,24,17,08,17.10
2012,06,24,17,09,17.00
2012,06,24,17,10,17.00
2012,06,24,17,11,17.00
2012,06,24,17,12,17.10
2012,06,24,17,13,17.10
2012,06,24,17,14,17.10
2012,06,24,17,15,17.10
2012,06,24,17,16,17.20
2012,06,24,17,17,17.20
2012,06,24,17,18,17.20
2012,06,24,17,19,17.20
2012,06,24,17,20,17.10
2012,06,24,17,21,17.10
2012,06,24,17,22,17.00
2012,06,24,17,23,16.90
2012,06,24,17,24,16.80
2012,06,24,17,25,16.70
2012,06,24,17,26,16.60
2012,06,24,17,27,16.60
2012,06,24,17,28,16.50
2012,06,24,17,29,16.40
2012,06,24,17,30,16.30
2012,06,24,17,31,16.30
2012,06,24,17,32,16.20
2012,06,24,17,33,16.20
2012,06,24,17,34,16.20
2012,06,24,17,35,16.20
2012,06,24,17,36,16.20
2012,06,24,17,37,16.20
2012,06,24,17,38,16.10
2012,06,24,17,39,16.00
2012,06,24,17,40,16.00
2012,06,24,17,41,15.90
2012,06,24,17,42,15.90
2012,06,24,17,43,15.80
2012,06,24,17,44,15.80
2012,06,24,17,45,15.80
2012,06,24,17,46,15.70